#timestamp,LO_Frequency,Hit 
1503637215.8,286047608.6,N
1503637235.7,286048622.7,N
1503637255.5,286048622.1,N
1503637275.3,286048625.2,N
1503637295.2,286048625.0,N
1503637315.9,286047610.1,N
1503637335.7,286047610.5,N
1503637355.6,286047658.7,N
1503637375.4,286048623.8,N
1503637395.2,286047612.1,N
1503637415.0,286047613.9,N
1503637416.0,286047613.9,N
1503637435.8,286047611.0,N
1503637455.6,286047590.3,N
1503637475.4,286047639.1,N
1503637495.3,286048628.6,N
1503637515.1,286047370.4,N
1503637535.8,286048628.1,N
1503637555.7,286047493.3,N
1503637575.5,286047493.4,N
1503637595.3,286048629.5,N
1503637615.2,286048625.8,N
1503637635.9,286047681.8,N
1503637655.7,286048304.3,N
1503637675.6,286048325.4,N
1503637695.4,286048325.3,N
1503637715.2,286048325.4,N
1503637735.0,286047747.8,N
1503637735.9,286047747.8,N
1503637755.8,286047617.5,N
1503637775.6,286048943.3,P
1503637795.5,286047461.5,N
1503637815.3,286047043.1,N
1503637835.1,286046684.8,N
1503637855.8,286046807.5,N
1503637875.7,286046804.6,N
1503637895.5,286046805.0,N
1503637915.3,286046617.7,N
1503637935.2,286046620.3,N
1503637955.9,286046620.4,N
1503637975.7,286046619.5,N
1503637995.6,286046619.9,N
1503638015.4,286047182.1,N
1503638035.2,286046696.8,N
1503638055.1,286046696.8,N
1503638056.0,286046696.8,N
1503638075.8,286046696.7,N
1503638095.6,286046694.3,N
1503638115.5,286046694.6,N
1503638135.3,286046695.4,N
1503638155.1,286046694.4,N
1503638175.8,286047186.4,N
1503638195.7,286047183.7,N
1503638215.5,286046623.9,N
1503638235.3,286046624.5,N
1503638255.2,286047188.3,N
1503638275.9,286046626.2,N
1503638295.7,286047108.8,N
1503638315.6,286047619.9,N
1503638335.4,286047187.4,N
1503638355.2,286047186.9,N
1503638375.1,286046628.1,N
1503638376.0,286046628.1,N
1503638395.8,286046850.7,N
1503638415.6,286047064.0,N
1503638435.5,286047520.1,N
1503638455.3,286046813.2,N
1503638475.1,286046931.4,N
1503638495.8,286046652.5,N
1503638515.7,286046642.1,N
1503638535.5,286046649.4,N
1503638555.3,286046631.7,N
1503638575.2,286046634.4,N
1503638595.9,286046648.2,N
1503638615.7,286046633.8,N
1503638635.6,286046635.6,N
1503638655.4,286046643.7,N
1503638675.2,286046938.7,N
1503638695.1,286046661.4,N
1503638696.0,286046661.4,N
1503638715.8,286046646.4,N
1503638735.6,286046638.2,N
1503638755.5,286046640.3,N
1503638775.3,286046636.9,N
1503638795.1,286046588.0,N
1503638815.9,286046636.6,N
1503638835.7,286046639.2,N
1503638855.5,286046472.1,N
1503638875.3,286046457.9,N
1503638895.2,286045909.3,P
1503638915.0,286046936.6,N
1503638915.9,286046936.6,N
1503638935.8,286046901.4,N
1503638955.6,286046901.4,N
1503638975.4,286046901.1,N
1503638995.2,286046940.2,N
1503639015.1,286047264.6,N
1503639016.0,286047264.6,N
1503639035.8,286046904.9,N
1503639055.6,286046345.8,N
1503639075.5,286046906.8,N
1503639095.3,286046904.5,N
1503639115.1,286046919.2,N
1503639135.9,286046116.8,N
1503639155.7,286047025.4,N
1503639175.5,286046082.8,N
1503639195.4,286046517.6,N
1503639215.2,286046907.1,N
1503639235.0,286046909.2,N
1503639235.9,286046909.2,N
1503639255.8,286046906.9,N
1503639275.6,286046907.7,N
1503639295.4,286046909.0,N
1503639315.3,286046616.6,N
1503639335.1,286046910.2,N
1503639336.0,286046910.2,N
1503639355.8,286046912.8,N
1503639375.6,286047218.2,N
1503639395.5,286046910.0,N
1503639415.3,286046816.9,N
1503639435.1,286046913.5,N
1503639455.9,286046818.6,N
1503639475.7,286046913.5,N
1503639495.5,286046915.8,N
1503639515.4,286047001.8,N
1503639535.2,286047034.7,N
1503639555.0,286047001.3,N
1503639555.9,286047001.3,N
1503639575.8,286047034.0,N
1503639595.6,286047072.8,N
1503639615.4,286046999.8,N
1503639635.3,286047074.3,N
1503639655.1,286047072.8,N
1503639656.0,286047072.8,N
1503639675.8,286047072.9,N
1503639695.7,286047042.5,N
1503639715.5,286047175.9,N
1503639735.3,286047072.5,N
1503639755.1,286046931.5,N
1503639775.9,286047068.4,N
1503639795.7,286047074.5,N
1503639815.5,286046925.9,N
1503639835.4,286047070.8,N
1503639855.2,286047072.5,N
1503639875.0,286046926.8,N
1503639875.9,286046926.8,N
1503639895.8,286047283.2,P
1503639915.6,286047629.8,P
1503639935.4,286047074.7,N
1503639955.3,286047074.5,N
1503639975.1,286047074.8,N
1503639995.8,286046927.3,N
1503640015.7,286046926.4,N
1503640035.5,286046924.5,N
1503640055.3,286046930.7,N
1503640075.2,286046866.4,N
1503640095.9,286047083.2,N
1503640115.7,286046930.5,N
1503640135.6,286047082.9,N
1503640155.4,286047096.3,N
1503640175.2,286046931.5,N
1503640195.0,286047090.7,N
1503640195.9,286047090.7,N
1503640215.8,286047013.5,N
1503640235.6,286046934.3,N
1503640255.4,286046936.9,N
1503640275.3,286047585.7,P
1503640295.1,286047759.9,N
1503640315.8,286047053.0,N
1503640335.7,286047759.3,N
1503640355.5,286047757.0,N
1503640375.3,286046896.7,N
1503640395.2,286047034.2,N
1503640415.9,286046898.4,N
1503640435.7,286046979.2,N
1503640455.6,286047750.2,N
1503640475.4,286046463.5,N
1503640495.2,286046856.2,N
1503640515.1,286047009.5,N
1503640516.0,286047009.5,N
1503640535.8,286047128.4,N
1503640555.6,286047334.7,N
1503640575.5,286047744.7,N
1503640595.3,286047564.8,N
1503640615.1,286047565.9,N
1503640635.8,286047565.3,N
1503640655.7,286047565.5,N
1503640675.5,286046905.6,N
1503640695.3,286047563.0,N
1503640715.2,286047565.9,N
1503640735.9,286047565.2,N
1503640755.7,286047432.8,N
1503640775.6,286046911.5,N
1503640795.4,286046910.8,N
